Time,TemperatureF,DewpointF,PressureIn,WindDirection,WindDirectionDegrees,WindSpeedMPH,WindSpeedGustMPH,Humidity,HourlyPrecipIn,Conditions,Clouds,dailyrainin,SoftwareType,DateUTC
2013-05-06 00:11:00,44.5,39.0,30.24,ESE,111,0.0,0.0,81,0.00,,,0.00,weatherlink.com 1.10,2013-05-06 04:11:00,
2013-05-06 00:27:00,43.7,39.0,30.24,ESE,111,0.0,0.0,82,0.00,,,0.00,weatherlink.com 1.10,2013-05-06 04:27:00,
2013-05-06 00:41:00,42.8,38.0,30.24,ESE,111,0.0,0.0,83,0.00,,,0.00,weatherlink.com 1.10,2013-05-06 04:41:00,
2013-05-06 00:56:00,41.9,38.0,30.24,ESE,111,0.0,0.0,85,0.00,,,0.00,weatherlink.com 1.10,2013-05-06 04:56:00,
2013-05-06 01:11:00,41.1,37.0,30.24,ESE,111,0.0,0.0,85,0.00,,,0.00,weatherlink.com 1.10,2013-05-06 05:11:00,
2013-05-06 01:26:00,40.4,37.0,30.24,ESE,111,0.0,0.0,87,0.00,,,0.00,weatherlink.com 1.10,2013-05-06 05:26:00,
2013-05-06 01:41:00,39.6,36.0,30.23,ESE,111,0.0,0.0,88,0.00,,,0.00,weatherlink.com 1.10,2013-05-06 05:41:00,
2013-05-06 01:56:00,38.8,36.0,30.23,ESE,111,0.0,0.0,89,0.00,,,0.00,weatherlink.com 1.10,2013-05-06 05:56:00,
2013-05-06 02:11:00,38.3,36.0,30.23,ESE,111,0.0,0.0,90,0.00,,,0.00,weatherlink.com 1.10,2013-05-06 06:11:00,
2013-05-06 02:26:00,37.8,35.0,30.23,ESE,111,0.0,0.0,90,0.00,,,0.00,weatherlink.com 1.10,2013-05-06 06:26:00,
2013-05-06 02:41:00,37.1,35.0,30.23,ESE,111,0.0,0.0,91,0.00,,,0.00,weatherlink.com 1.10,2013-05-06 06:41:00,
2013-05-06 02:56:00,36.6,35.0,30.23,ESE,111,0.0,0.0,92,0.00,,,0.00,weatherlink.com 1.10,2013-05-06 06:56:00,
2013-05-06 03:11:00,36.1,34.0,30.23,ESE,111,0.0,0.0,92,0.00,,,0.00,weatherlink.com 1.10,2013-05-06 07:11:00,
2013-05-06 03:26:00,35.7,34.0,30.22,ESE,111,0.0,0.0,92,0.00,,,0.00,weatherlink.com 1.10,2013-05-06 07:26:00,
2013-05-06 03:41:00,35.3,34.0,30.22,ESE,111,0.0,0.0,93,0.00,,,0.00,weatherlink.com 1.10,2013-05-06 07:41:00,
2013-05-06 03:56:00,35.0,33.0,30.22,ESE,111,0.0,1.0,92,0.00,,,0.00,weatherlink.com 1.10,2013-05-06 07:56:00,
2013-05-06 04:12:00,34.5,33.0,30.22,ESE,111,0.0,0.0,93,0.00,,,0.00,weatherlink.com 1.10,2013-05-06 08:12:00,
2013-05-06 04:27:00,34.2,32.0,30.22,ESE,111,0.0,0.0,93,0.00,,,0.00,weatherlink.com 1.10,2013-05-06 08:27:00,
2013-05-06 04:42:00,33.9,32.0,30.22,ESE,111,0.0,0.0,93,0.00,,,0.00,weatherlink.com 1.10,2013-05-06 08:42:00,
2013-05-06 04:57:00,33.4,32.0,30.23,ESE,111,0.0,0.0,93,0.00,,,0.00,weatherlink.com 1.10,2013-05-06 08:57:00,
2013-05-06 05:12:00,33.0,31.0,30.23,ESE,111,0.0,0.0,93,0.00,,,0.00,weatherlink.com 1.10,2013-05-06 09:12:00,
2013-05-06 05:27:00,33.1,31.0,30.23,ESE,111,0.0,0.0,93,0.00,,,0.00,weatherlink.com 1.10,2013-05-06 09:27:00,
2013-05-06 05:42:00,32.9,31.0,30.24,ESE,111,0.0,0.0,93,0.00,,,0.00,weatherlink.com 1.10,2013-05-06 09:42:00,
2013-05-06 05:57:00,32.6,31.0,30.24,ESE,111,0.0,0.0,94,0.00,,,0.00,weatherlink.com 1.10,2013-05-06 09:57:00,
2013-05-06 06:12:00,32.8,31.0,30.25,ESE,111,0.0,0.0,93,0.00,,,0.00,weatherlink.com 1.10,2013-05-06 10:12:00,
2013-05-06 06:27:00,33.2,32.0,30.25,ESE,111,0.0,0.0,94,0.00,,,0.00,weatherlink.com 1.10,2013-05-06 10:27:00,
2013-05-06 06:42:00,33.8,32.0,30.24,ESE,111,0.0,0.0,94,0.00,,,0.00,weatherlink.com 1.10,2013-05-06 10:42:00,
2013-05-06 06:57:00,36.6,35.0,30.24,ESE,111,0.0,0.0,95,0.00,,,0.00,weatherlink.com 1.10,2013-05-06 10:57:00,
2013-05-06 07:12:00,39.5,37.0,30.24,ESE,111,0.0,0.0,92,0.00,,,0.00,weatherlink.com 1.10,2013-05-06 11:12:00,
2013-05-06 07:27:00,41.4,38.0,30.24,ESE,111,0.0,1.0,89,0.00,,,0.00,weatherlink.com 1.10,2013-05-06 11:27:00,
2013-05-06 07:44:00,43.4,39.0,30.24,ESE,112,0.0,1.0,85,0.00,,,0.00,weatherlink.com 1.10,2013-05-06 11:44:00,
2013-05-06 07:57:00,45.0,40.0,30.24,ESE,113,1.0,3.0,82,0.00,,,0.00,weatherlink.com 1.10,2013-05-06 11:57:00,
2013-05-06 08:12:00,46.0,40.0,30.24,WNW,286,2.0,3.0,79,0.00,,,0.00,weatherlink.com 1.10,2013-05-06 12:12:00,
2013-05-06 08:27:00,47.7,41.0,30.23,West,268,0.0,2.0,77,0.00,,,0.00,weatherlink.com 1.10,2013-05-06 12:27:00,
2013-05-06 08:42:00,49.8,41.0,30.24,NNW,335,0.0,2.0,72,0.00,,,0.00,weatherlink.com 1.10,2013-05-06 12:42:00,
2013-05-06 08:57:00,51.9,42.0,30.24,NNW,335,0.0,1.0,68,0.00,,,0.00,weatherlink.com 1.10,2013-05-06 12:57:00,
2013-05-06 09:12:00,53.5,42.0,30.24,NNW,335,0.0,1.0,65,0.00,,,0.00,weatherlink.com 1.10,2013-05-06 13:12:00,
2013-05-06 09:27:00,55.2,42.0,30.23,NNW,333,2.0,3.0,62,0.00,,,0.00,weatherlink.com 1.10,2013-05-06 13:27:00,
2013-05-06 09:42:00,56.3,43.0,30.23,South,179,0.0,4.0,61,0.00,,,0.00,weatherlink.com 1.10,2013-05-06 13:42:00,
2013-05-06 09:57:00,58.5,43.0,30.23,WSW,244,1.0,5.0,57,0.00,,,0.00,weatherlink.com 1.10,2013-05-06 13:57:00,
2013-05-06 10:12:00,60.3,43.0,30.23,NE,36,0.0,3.0,53,0.00,,,0.00,weatherlink.com 1.10,2013-05-06 14:12:00,
2013-05-06 10:27:00,61.2,41.0,30.23,SE,126,3.0,7.0,47,0.00,,,0.00,weatherlink.com 1.10,2013-05-06 14:27:00,
2013-05-06 10:42:00,63.3,40.0,30.23,ESE,116,0.0,7.0,43,0.00,,,0.00,weatherlink.com 1.10,2013-05-06 14:42:00,
2013-05-06 10:57:00,64.1,40.0,30.22,WSW,248,2.0,9.0,41,0.00,,,0.00,weatherlink.com 1.10,2013-05-06 14:57:00,
2013-05-06 11:13:00,64.8,39.0,30.22,SE,136,2.0,8.0,39,0.00,,,0.00,weatherlink.com 1.10,2013-05-06 15:13:00,
2013-05-06 11:28:00,65.7,35.0,30.21,ESE,109,1.0,9.0,32,0.00,,,0.00,weatherlink.com 1.10,2013-05-06 15:28:00,
2013-05-06 11:43:00,66.8,33.0,30.21,SSE,157,4.0,9.0,29,0.00,,,0.00,weatherlink.com 1.10,2013-05-06 15:43:00,
2013-05-06 11:58:00,67.5,32.0,30.20,SSE,154,3.0,8.0,27,0.00,,,0.00,weatherlink.com 1.10,2013-05-06 15:58:00,
2013-05-06 12:13:00,67.8,32.0,30.19,ESE,122,3.0,9.0,26,0.00,,,0.00,weatherlink.com 1.10,2013-05-06 16:13:00,
2013-05-06 12:28:00,68.1,32.0,30.18,SE,144,0.0,11.0,26,0.00,,,0.00,weatherlink.com 1.10,2013-05-06 16:28:00,
2013-05-06 12:43:00,69.0,24.0,30.18,South,180,3.0,9.0,18,0.00,,,0.00,weatherlink.com 1.10,2013-05-06 16:43:00,
2013-05-06 12:58:00,70.6,28.0,30.17,SSE,157,7.0,8.0,20,0.00,,,0.00,weatherlink.com 1.10,2013-05-06 16:58:00,
2013-05-06 13:13:00,71.6,28.0,30.16,SSE,159,3.0,10.0,20,0.00,,,0.00,weatherlink.com 1.10,2013-05-06 17:13:00,
2013-05-06 13:28:00,71.8,29.0,30.16,SSE,155,0.0,6.0,20,0.00,,,0.00,weatherlink.com 1.10,2013-05-06 17:28:00,
2013-05-06 13:43:00,72.4,28.0,30.16,SE,135,0.0,9.0,19,0.00,,,0.00,weatherlink.com 1.10,2013-05-06 17:43:00,
2013-05-06 13:58:00,73.0,30.0,30.15,East,92,3.0,7.0,20,0.00,,,0.00,weatherlink.com 1.10,2013-05-06 17:58:00,
2013-05-06 14:13:00,73.9,28.0,30.14,East,94,2.0,7.0,18,0.00,,,0.00,weatherlink.com 1.10,2013-05-06 18:13:00,
2013-05-06 14:28:00,74.3,27.0,30.14,ESE,123,1.0,8.0,17,0.00,,,0.00,weatherlink.com 1.10,2013-05-06 18:28:00,
2013-05-06 14:43:00,75.1,27.0,30.13,SW,230,0.0,9.0,17,0.00,,,0.00,weatherlink.com 1.10,2013-05-06 18:43:00,
2013-05-06 15:00:00,74.9,24.0,30.12,SE,133,3.0,7.0,15,0.00,,,0.00,weatherlink.com 1.10,2013-05-06 19:00:00,
2013-05-06 15:13:00,74.4,22.0,30.12,East,85,2.0,8.0,14,0.00,,,0.00,weatherlink.com 1.10,2013-05-06 19:13:00,
2013-05-06 15:28:00,75.6,25.0,30.11,North,355,2.0,7.0,15,0.00,,,0.00,weatherlink.com 1.10,2013-05-06 19:28:00,
2013-05-06 15:44:00,75.7,21.0,30.10,East,94,3.0,6.0,13,0.00,,,0.00,weatherlink.com 1.10,2013-05-06 19:44:00,
2013-05-06 15:59:00,75.6,21.0,30.09,ESE,117,1.0,7.0,13,0.00,,,0.00,weatherlink.com 1.10,2013-05-06 19:59:00,
2013-05-06 16:14:00,76.5,22.0,30.09,SSE,149,0.0,8.0,13,0.00,,,0.00,weatherlink.com 1.10,2013-05-06 20:14:00,
2013-05-06 16:29:00,76.6,20.0,30.08,ESE,106,3.0,9.0,12,0.00,,,0.00,weatherlink.com 1.10,2013-05-06 20:29:00,
2013-05-06 16:44:00,76.1,22.0,30.07,SSE,155,1.0,6.0,13,0.00,,,0.00,weatherlink.com 1.10,2013-05-06 20:44:00,
2013-05-06 16:59:00,76.6,20.0,30.10,SE,142,0.0,6.0,12,0.00,,,0.00,weatherlink.com 1.10,2013-05-06 20:59:00,
2013-05-06 17:14:00,76.2,22.0,30.07,SSE,156,4.0,7.0,13,0.00,,,0.00,weatherlink.com 1.10,2013-05-06 21:14:00,
2013-05-06 17:29:00,75.7,17.0,30.08,SSE,151,0.0,6.0,11,0.00,,,0.00,weatherlink.com 1.10,2013-05-06 21:29:00,
2013-05-06 17:44:00,76.2,20.0,30.07,SSE,155,3.0,5.0,12,0.00,,,0.00,weatherlink.com 1.10,2013-05-06 21:44:00,
2013-05-06 17:59:00,75.4,17.0,30.09,SSE,168,0.0,4.0,11,0.00,,,0.00,weatherlink.com 1.10,2013-05-06 21:59:00,
2013-05-06 18:14:00,75.3,19.0,30.06,SE,146,4.0,7.0,12,0.00,,,0.00,weatherlink.com 1.10,2013-05-06 22:14:00,
2013-05-06 18:29:00,75.0,21.0,30.06,SE,142,1.0,6.0,13,0.00,,,0.00,weatherlink.com 1.10,2013-05-06 22:29:00,
2013-05-06 18:44:00,74.4,22.0,30.06,SE,127,0.0,6.0,14,0.00,,,0.00,weatherlink.com 1.10,2013-05-06 22:44:00,
2013-05-06 18:59:00,73.8,22.0,30.07,SE,143,1.0,5.0,14,0.00,,,0.00,weatherlink.com 1.10,2013-05-06 22:59:00,
2013-05-06 19:14:00,73.1,23.0,30.07,SE,127,0.0,4.0,15,0.00,,,0.00,weatherlink.com 1.10,2013-05-06 23:14:00,
2013-05-06 19:29:00,71.7,27.0,30.07,SE,127,0.0,1.0,19,0.00,,,0.00,weatherlink.com 1.10,2013-05-06 23:29:00,
2013-05-06 19:44:00,69.0,39.0,30.08,SSE,156,0.0,10.0,34,0.00,,,0.00,weatherlink.com 1.10,2013-05-06 23:44:00,
2013-05-06 19:59:00,67.5,42.0,30.09,East,97,0.0,7.0,40,0.00,,,0.00,weatherlink.com 1.10,2013-05-06 23:59:00,
2013-05-06 20:14:00,66.0,43.0,30.09,ENE,72,0.0,3.0,44,0.00,,,0.00,weatherlink.com 1.10,2013-05-07 00:14:00,
2013-05-06 20:29:00,63.9,43.0,30.10,ENE,72,0.0,2.0,47,0.00,,,0.00,weatherlink.com 1.10,2013-05-07 00:29:00,
2013-05-06 20:44:00,61.5,43.0,30.11,ENE,72,0.0,1.0,51,0.00,,,0.00,weatherlink.com 1.10,2013-05-07 00:44:00,
2013-05-06 20:59:00,60.8,44.0,30.11,ENE,72,0.0,2.0,54,0.00,,,0.00,weatherlink.com 1.10,2013-05-07 00:59:00,
2013-05-06 21:14:00,60.3,44.0,30.12,ENE,65,0.0,7.0,56,0.00,,,0.00,weatherlink.com 1.10,2013-05-07 01:14:00,
2013-05-06 21:29:00,58.4,44.0,30.13,ENE,65,1.0,2.0,60,0.00,,,0.00,weatherlink.com 1.10,2013-05-07 01:29:00,
2013-05-06 21:44:00,58.8,45.0,30.14,East,98,1.0,7.0,60,0.00,,,0.00,weatherlink.com 1.10,2013-05-07 01:44:00,
2013-05-06 21:59:00,59.5,46.0,30.14,East,91,3.0,8.0,61,0.00,,,0.00,weatherlink.com 1.10,2013-05-07 01:59:00,
2013-05-06 22:17:00,58.2,45.0,30.14,ESE,115,0.0,4.0,62,0.00,,,0.00,weatherlink.com 1.10,2013-05-07 02:17:00,
2013-05-06 22:29:00,55.8,45.0,30.14,ESE,115,0.0,4.0,67,0.00,,,0.00,weatherlink.com 1.10,2013-05-07 02:29:00,
2013-05-06 22:44:00,55.2,45.0,30.14,East,101,0.0,2.0,68,0.00,,,0.00,weatherlink.com 1.10,2013-05-07 02:44:00,
2013-05-06 22:59:00,53.3,44.0,30.14,East,101,0.0,2.0,71,0.00,,,0.00,weatherlink.com 1.10,2013-05-07 02:59:00,
2013-05-06 23:14:00,51.9,45.0,30.13,East,101,0.0,0.0,76,0.00,,,0.00,weatherlink.com 1.10,2013-05-07 03:14:00,
2013-05-06 23:29:00,50.8,44.0,30.13,East,101,0.0,0.0,78,0.00,,,0.00,weatherlink.com 1.10,2013-05-07 03:29:00,
2013-05-06 23:44:00,49.8,44.0,30.13,East,101,0.0,0.0,80,0.00,,,0.00,weatherlink.com 1.10,2013-05-07 03:44:00,
2013-05-06 23:59:00,48.7,43.0,30.14,East,101,0.0,0.0,82,0.00,,,0.00,weatherlink.com 1.10,2013-05-07 03:59:00,